COSMOS 2491 DEB, 57550

Orbit data source: Space-Track

COSMOS 2491 DEB, 57550 is space debris in LEO originally from a launch on Wed, 25 Dec 2013 UTC launched from the Plesetsk Missile And Space Complex (PKMTR). Debris objects in space refer to the collection of defunct objects orbiting the Earth. Examples of debris include non-operational satellites, rocket bodies, and fragments generated from explosions, collisions, or faulty payload assembly.

Loading next visibility...
Identifier
57550, 2013-076AM
Orbit
LEO
Country
Flag of CISCIS
Related business
Manufacturer
TsNIIKhM
Mission
Spacecraft
Bus & Motor
Unknown
Mass
Unknown
Launch date (UTC)
2013-12-25 (13 years ago)
Launch vehicle
Unknown
Launch site
Plesetsk Missile And Space Complex (PKMTR)
Object type
Payload
Rocket body
Debris
Shape & HBR
Unknown shape, 0.1 m
Radar Cross Section
Small (<0.1 m²)

Expand to show TLE details & history
Last TLE update: 6 days ago

TLE from 6 days ago
0 COSMOS 2491 DEB
1 57550U 13076AM  26247.73035989  .00002539  00000-0  10905-1 0  9999
2 57550  82.4578  44.6691 0194357 266.7251  91.1597 12.75781055154234
Epoch: 2026-09-04T17:31Z
TLE epoch observation values (Epoch: 2026-09-04T17:31:43.094Z)
Latitude
-0.00004°
Longitude
157.88955°
Altitude
1,367.19 km
Speed
7.172 km/s
True Right ascension
02h 58m 40s
True Declination
0° 00' 00"
Sunlit
Object was in daylight at epoch
Visualization orbit readout
Latitude
Unknown
Longitude
Unknown
Altitude
Unknown
Speed
Unknown
Apparent Right ascension
Unknown
Apparent Declination
Unknown
Sunlit
N/A
Visualization observer readout
Local Sidereal Time
14:15:23
Azimuth
Unknown
Elevation
Unknown
Doppler factor
Unknown
Orbital elements
Apogee altitude
1,506.099 km
Perigee altitude
1,205.47 km
Semi-major axis
7,733.921 km
Eccentricity
0.01944
Inclination
82.4578°
RAAN
44.6691°
Arg. of periapsis
266.7251°
True anomaly
93.38476°
Mean anomaly
91.1597°
Eccentric anomaly
92.27241°
Mean motion
3.19112 °/min
Orbital period
112.81 mins
BSTAR
0.010905
Loading maneuver chart data...
Computing Atmospheric mass density...
Loading historical data...
Loading historical data...
Loading historical data...
Loading historical data...
Loading historical data...
Loading historical data...
Loading historical data...

Documentation

Showing up to 5 results
|